• Join FlightAware (Why Join?)
  • Login
  • US Flag 
Rudolph Flight #1: Arrived! 
02:40AM EST


 

Airport Tracker/Info


-or-


 

Live Flight TrackerFlight Track Log ✈ DCM1041 ✈ 31-Mar-2014 ✈ KPIE - KLZU

Flight Track Log - Related Links

Times and Time Zones

All times are in EDT time to prevent confusion due to time zone crossing. See the DCM1041 flight status page for this flight to view local times or setup timezone preferences in your user account.

Time Position Orientation Groundspeed Altitude Reporting Facility
EDT Latitude Longitude Course Direction KTS MPH feet Rate Location/Type
02:39PM 27.9333 -82.6833 270° West 176 203 400  Level Tampa TRACON
02:39PM 27.9333 -82.7000 270° West 154 177 900 1,380 Climbing Tampa TRACON
02:40PM 27.9833 -82.7167 344° North 221 254 2,100 1,500 Climbing Tampa TRACON
02:41PM 28.0500 -82.7333 348° North 257 296 4,000 2,220 Climbing Tampa TRACON
02:42PM 28.1167 -82.7500 348° North 273 314 6,600 3,000 Climbing Tampa TRACON
02:43PM 28.2000 -82.7667 350° North 283 326 10,100 2,040 Climbing Tampa TRACON
02:45PM 28.3336 -82.7936 350° North 310 357 11,900 1,260 Climbing Jacksonville Center
02:46PM 28.4233 -82.8122 350° North 321 369 13,400 2,400 Climbing Jacksonville Center
02:47PM 28.5131 -82.8358 347° North 326 375 16,800 2,760 Climbing Jacksonville Center
02:48PM 28.6047 -82.8547 350° North 326 375 19,000 2,520 Climbing Jacksonville Center
02:49PM 28.7008 -82.8761 349° North 337 388 21,800 2,340 Climbing Jacksonville Center
02:50PM 28.7989 -82.8997 348° North 342 394 23,700 2,040 Climbing Jacksonville Center
02:51PM 28.8992 -82.9328 344° North 355 409 25,900 1,980 Climbing Jacksonville Center
02:52PM 28.9931 -82.9969 329° Northwest 369 425 27,700 1,800 Climbing Jacksonville Center
02:53PM 29.0911 -83.0589 331° Northwest 388 447 29,600 1,800 Climbing Jacksonville Center
02:54PM 29.1911 -83.1208 332° Northwest 400 460 31,300 1,380 Climbing Jacksonville Center
02:55PM 29.2933 -83.1831 332° Northwest 400 460 32,400 1,440 Climbing Jacksonville Center
02:56PM 29.3975 -83.2478 332° Northwest 405 466 34,200 1,800 Climbing Jacksonville Center
02:57PM 29.4975 -83.3100 332° Northwest 410 472 36,000 1,800 Climbing Jacksonville Center
02:58PM 29.5956 -83.3728 331° Northwest 410 472 37,900 960 Climbing Jacksonville Center
02:59PM 29.6953 -83.4328 332° Northwest 410 472 38,000  Climbing Jacksonville Center
03:00PM 29.8017 -83.4981 332° Northwest 415 478 37,900 -60 Descending Jacksonville Center
03:01PM 29.9078 -83.5636 332° Northwest 415 478 37,900  Level Jacksonville Center
03:02PM 30.0139 -83.6289 332° Northwest 421 484 38,000  Climbing Jacksonville Center
03:03PM 30.1200 -83.6947 332° Northwest 426 490 38,000 -60 Level Jacksonville Center
03:04PM 30.2261 -83.7603 332° Northwest 426 490 37,900 -60 Descending Jacksonville Center
03:05PM 30.3300 -83.8239 332° Northwest 426 490 37,900  Level Jacksonville Center
03:06PM 30.4339 -83.8925 330° Northwest 426 490 38,000  Climbing Jacksonville Center
03:07PM 30.5397 -83.9586 332° Northwest 426 490 37,900  Descending Jacksonville Center
03:08PM 30.6333 -84.0175 332° Northwest 421 484 38,000  Climbing Jacksonville Center
03:09PM 30.7369 -84.0817 332° Northwest 421 484 38,000  Level Jacksonville Center
03:10PM 30.8428 -84.1508 331° Northwest 421 484 38,000  Level Jacksonville Center
03:11PM 30.9508 -84.2175 332° Northwest 426 490 38,000  Level Jacksonville Center
03:12PM 31.0544 -84.2844 331° Northwest 426 490 38,000 -420 Level Jacksonville Center
03:15PM 31.3514 -84.4767 331° Northwest 417 480 36,400 -900 Descending Atlanta Center
03:16PM 31.4556 -84.5428 332° Northwest 417 480 34,700 -1,200 Descending Atlanta Center
03:17PM 31.5575 -84.6092 331° Northwest 417 480 34,000 -360 Descending Atlanta Center
03:18PM 31.6572 -84.6733 331° Northwest 410 472 34,000 -300 Level Atlanta Center
03:19PM 31.7678 -84.7253 338° Northwest 410 472 33,500 -1,140 Descending Atlanta Center
03:20PM 31.8864 -84.7556 348° North 421 484 31,800 -1,800 Descending Atlanta Center
03:21PM 32.0031 -84.7858 348° North 426 490 30,000 -1,800 Descending Atlanta Center
03:22PM 32.1219 -84.8186 347° North 431 496 28,200 -1,800 Descending Atlanta Center
03:23PM 32.2386 -84.8517 347° North 431 496 26,500 -1,800 Descending Atlanta Center
03:24PM 32.3658 -84.8847 348° North 431 496 24,600 -1,800 Descending Atlanta Center
03:25PM 32.4803 -84.9156 347° North 426 490 22,900 -1,740 Descending Atlanta Center
03:26PM 32.5908 -84.9461 347° North 421 484 21,200 -1,680 Descending Atlanta Center
03:27PM 32.7011 -84.9792 346° North 411 473 19,600 -1,620 Descending Atlanta Center
03:28PM 32.8011 -85.0125 344° North 411 473 18,000 -1,560 Descending Atlanta Center
03:29PM 32.9053 -85.0408 347° North 395 455 16,500 -1,500 Descending Atlanta Center
03:30PM 33.0136 -85.0694 348° North 374 430 15,000 -1,500 Descending Atlanta Center
03:31PM 33.1072 -85.0953 347° North 361 415 13,600 -1,380 Descending Atlanta Center
03:32PM 33.1906 -85.1186 347° North 336 387 12,300 -1,200 Descending Atlanta Center
03:33PM 33.2717 -85.1419 346° North 306 352 11,200 -660 Descending Atlanta Center
03:34PM 33.3469 -85.1256 10° North 279 321 11,000 -960 Descending Atlanta Center
03:35PM 33.4264 -85.0992 15° North 279 321 9,300 -1,680 Descending Atlanta Center
03:36PM 33.4997 -85.0753 15° North 279 321 7,700 -1,620 Descending Atlanta Center
03:37PM 33.5731 -85.0561 12° North 274 315 6,100 -1,380 Descending Atlanta Center
03:38PM 33.6378 -85.0394 12° North 274 315 5,000 -600 Descending Atlanta Center
03:39PM 33.7069 -85.0228 11° North 259 298 5,000  Level Atlanta Center
03:40PM 33.7781 -85.0036 13° North 259 298 5,000  Level Atlanta Center
03:42PM 33.8833 -84.8500 50° Northeast 226 260 5,000  Level Atlanta TRACON
03:43PM 33.9000 -84.7667 76° East 229 264 5,000  Level Atlanta TRACON
03:44PM 33.9333 -84.7167 51° Northeast 233 268 5,000  Level Atlanta TRACON
03:45PM 33.9500 -84.6333 76° East 231 266 5,000  Level Atlanta TRACON
03:46PM 33.9667 -84.5500 76° East 234 269 5,000  Level Atlanta TRACON
03:47PM 33.9833 -84.4833 73° East 233 268 5,000  Level Atlanta TRACON
03:48PM 33.9833 -84.4000 90° East 223 257 5,000  Level Atlanta TRACON
03:49PM 34.0000 -84.3333 73° East 267 307 5,000  Level Atlanta TRACON
03:50PM 34.0167 -84.2667 73° East 221 254 5,000 -60 Level Atlanta TRACON
03:51PM 34.0333 -84.2000 73° East 220 253 4,900 -360 Descending Atlanta TRACON
03:52PM 34.0500 -84.1333 73° East 207 238 4,400 -600 Descending Atlanta TRACON
03:53PM 34.0500 -84.0667 90° East 207 238 3,800 -660 Descending Atlanta TRACON
03:54PM 34.0333 -84.0000 107° East 172 198 3,100 -480 Descending Atlanta TRACON
03:55PM 34.0333 -83.9667 90° East 145 167 2,900 -420 Descending Atlanta TRACON
03:56PM 34.0167 -83.9167 112° Southeast 148 170 2,300 -600 Descending Atlanta TRACON
03:58PM 33.9667 -83.9500 90° East  Level FlightAware Approximate
04:05PM 33.9781 -83.9624 90° East  Level Estimated